SCP
0 0 0 0 0 0 0 0 1 1 1 0 0 0 0 0 0 0 0 0 0 0 0 0 0 0 0 0 0 0 0 0 0 0 0 0 0 0 0 0 0 0 0
0 0 0 0 0 0 0 0 0 0 0 0 0 0 0 0 0 0 0 0 0 0 0 0 0 0 0 0 0 0 0 0 0 0 0 0 0 0 0 0 0 0 0
-0 0 0 0 0 0 0 0 0 0 0 0 0 0 0 0 0 0 0 0 0 0 0 0 0 0 0 0 0 0 0 0 0 0 -0 0 0 0 0 0 0 0 0
0 0 0 0 0 0 0 0 0 0 0 0 0 0 0 0 0 0 0 0 0 0 0 -0 -0 0 0 0 0 0 0 0 0 0 0 0 0 0 0 0 0 0 0
0 0 0 0 0 0 0 0 0 0 0 0 0 0 0 0 0 0 0 0 -0 -0 -0 -0 -0 -0 0 0 0 0 0 0 0 0 0 0 0 0 0 0 0 0 0
0 0 0 0 0 0 0 0 0 0 0 0 0 0 0 0 0 0 0 0 0 0 0 0 0 -0 0 0 0 0 0 0 0 0 0 0 0 0 0 0 0 0 0
0 0 0 0 0 0 0 0 0 0 0 0 0 0 0 0 0 0 0 0 0 0 0 0 0 0 0 0 0 0 0 0 0 0 0 0 0 0 0 0 0 -0 -0
0 0 0 0 0 0 0 0 0 0 0 0 0 0 0 0 0 0 0 0 0 0 0 0 0 0 0 0 0 0 0 0 0 0 0 0 0 0 0 0 0 0 0
0 0 0 0 0 0 0 0 0 0 0 0 0 0 0 0 0 0 0 0 0 0 0 0 0 0 0 0 0 0 0 0 0 0 0 -0 0 0 0 0 0 0 0
0 0 0 0 0 0 0 0 0 0 0 0 0 0 0 0 0 0 0 0 0 0 0 0 0 0 0 0 0 0 0 0 0 0 0 0 -0 0 0 0 0 0 0
0 0 0 0 0 0 0 0 0 0 0 0 0 0 0 0 0 0 0 0 0 0 0 0 0 0 0 0 0 0 0 0 0 0 0 0 0 0 0 0 0 0 0
0 0 0 0 0 0 0 0 0 0 0 0 0 0 0 0 0 0 0 0 0 0 0 0 0 0 0 0 0 0 0 0 0 0 0 0 0 0 0 0 0 0 0
0 0 0 0 0 0 0 0 0 0 0 0 0 0 0 0 0 0 0 0 0 0 0 0 0 0 0 0 0 0 0 0 0 0 0 0 0 0 0 0 0 0 0
0 0 0 0 0 0 0 0 0 0 0 0 0 0 0 0 0 0 0 0 0 0 0 0 0 0 0 0 0 0 0 0 0 0 0 0 0 0 0 0 0 0 0
0 0 0 0 0 0 0 0 0 0 0 0 0 0 0 0 0 0 0 0 0 0 0 0 0 0 0 0 0 0 0 0 0 0 0 0 0 0 0 0 0 0 0
0 0 0 0 0 0 0 0 0 0 0 0 0 0 0 0 0 0 0 0 0 0 0 0 0 0 0 0 0 0 0 0 0 0 0 0 0 0 0 0 0 0 0
0 0 0 0 0 0 0 0 0 0 0 0 0 0 0 0 0 0 0 0 0 0 0 0 0 0 0 0 0 0 0 0 0 0 0 0 0 0 0 0 0 0 0
0 0 0 0 0 0 0 0 0 0 0 0 0 0 0 0 0 0 0 0 0 0 0 0 0 0 0 0 0 0 0 0 0 0 0 0 0 0 0 0 0 0 0
0 0 0 0 0 0 0 0 0 0 0 0 0 0 0 0 0 0 0 0 0 0 0 0 0 0 0 0 0 0 0 0 0 0 0 0 0 0 0 0 0 0 0
0 0 0 0 0 0 0 0 0 0 0 0 0 0 0 0 0 0 0 0 0 0 0 0 0 0 0 0 0 0 0 0 0 0 0 0 0 0 0 0 0 0 0
0 0 0 0 0 0 0 0 0 0 0 0 0 0 0 0 0 0 0 0 0 0 0 0 0 0 0 0 0 0 0 0 0 0 0 0 0 0 0 0 0 0 0
0 0 0 0 0 0 0 0 0 0 0 0 0 0 0 0 0 0 0 0 0 0 0 0 0 0 0 0 0 0 0 0 0 0 0 0 0 0 0 0 0 0 0
0 0 0 0 0 0 0 0 0 0 0 0 0 0 0 0 0 0 0 0 0 0 0 0 0 0 0 0 0 0 0 0 0 0 0 0 0 0 0 0 0 0 0
0 0 0 0 0 0 0 0 0 0 0 0 0 0 0 0 0 0 0 0 0 0 0 0 0 -0 0 0 0 0 0 0 0 0 0 0 0 -0 0 0 0 0 0
0 0 0 0 0 0 0 0 0 0 0 0 0 0 0 0 0 0 0 0 0 0 0 0 0 -0 -0 0 0 0 0 0 0 0 0 0 0 -0 -0 0 0 0 0
0 0 0 0 0 0 0 0 0 0 0 0 0 0 0 0 0 0 0 0 0 0 0 0 0 -0 -0 -0 0 0 0 0 0 0 0 0 0 -0 -0 -0 0 0 0
Wind_Speed_500mb
38 35 32 27 24 24 24 25 30 26 25 24 23 22 18 10 2 5 14 19 21 21 22 23 24 25 28 30 30 29 32 39 41 37 28 15 15 10 23 27 24 23 18
54 45 37 29 23 22 22 27 30 31 28 25 30 24 15 7 7 13 17 25 30 31 31 31 30 28 27 27 27 31 34 38 45 47 31 27 21 33 28 30 32 31 25
72 58 49 39 31 25 26 27 28 27 27 27 27 21 12 7 10 14 20 28 29 29 30 30 30 30 31 30 27 31 35 37 36 39 35 19 21 38 32 33 34 35 30
76 67 56 42 31 26 26 30 29 26 28 34 29 17 10 3 2 7 15 23 28 30 30 31 31 31 30 29 30 32 33 35 40 33 29 27 28 29 33 39 36 34 32
86 73 58 40 31 25 25 31 32 29 32 33 28 20 16 16 13 11 13 17 22 26 28 30 31 30 29 30 31 33 35 33 30 32 34 29 29 34 35 44 54 43 38
81 67 50 41 34 27 28 34 36 33 32 30 27 19 18 20 16 12 6 8 14 20 24 27 28 33 34 35 37 39 42 39 35 35 33 34 38 38 38 44 44 47 47
82 71 63 53 40 33 34 40 39 38 34 30 28 23 21 24 16 12 6 1 11 20 25 24 25 28 30 34 35 36 38 39 41 42 46 40 36 33 37 41 45 48 50
80 73 66 57 43 34 35 43 45 41 36 34 33 28 24 19 15 15 12 4 8 16 20 15 17 20 24 30 36 40 39 42 39 35 40 46 48 39 35 39 42 53 51
83 77 69 58 43 35 34 45 47 41 36 34 32 27 23 20 11 8 5 4 6 11 19 23 27 30 33 34 36 39 40 37 36 39 45 47 50 46 37 36 35 35 36
79 79 75 63 46 37 36 39 42 37 33 29 24 19 17 14 10 9 7 9 13 20 27 33 36 32 33 35 35 34 32 34 37 48 50 43 46 51 47 43 38 36 33
88 88 82 65 54 47 49 47 45 41 35 29 24 22 17 15 13 11 9 12 18 24 31 36 41 38 37 35 34 33 34 39 40 42 48 54 50 50 44 40 39 39 34
89 87 84 73 68 63 61 56 46 40 35 25 23 16 13 20 24 19 17 21 25 30 33 28 31 32 33 34 35 34 33 35 41 48 48 45 44 40 37 32 32 31 33
86 89 89 86 81 76 72 61 47 39 30 26 22 27 28 33 30 27 24 24 26 26 25 24 30 36 39 36 36 36 35 38 46 52 46 39 36 36 35 31 29 28 31
85 88 89 88 88 83 75 64 53 43 39 39 38 40 41 38 31 20 18 17 20 20 32 39 44 44 34 28 27 27 30 36 43 44 41 37 34 30 29 30 32 36 40
64 82 87 85 84 83 74 63 58 50 46 47 43 46 40 26 14 14 19 15 20 25 30 36 36 30 28 28 30 31 31 35 35 29 32 34 32 29 33 33 32 36 41
65 72 76 74 75 70 69 66 56 46 41 34 40 34 23 18 13 9 9 20 23 28 31 27 24 25 26 30 29 30 31 30 32 35 37 38 33 27 26 30 33 35 38
73 77 80 76 73 68 67 62 50 39 38 37 35 31 17 6 6 5 13 22 33 23 19 20 22 25 28 31 32 31 33 37 36 35 36 32 30 24 29 35 33 31 32
77 76 73 68 62 59 53 46 41 41 35 32 30 21 14 11 6 8 20 28 22 16 17 19 21 24 25 31 34 34 37 33 32 33 27 18 22 24 30 34 29 27 27
75 72 66 62 61 59 54 51 46 39 35 31 28 21 14 8 5 17 24 16 10 10 13 17 21 23 28 35 32 36 37 35 36 25 21 17 22 24 29 27 27 25 30
76 75 69 66 61 58 56 48 43 41 39 33 25 19 11 5 16 14 5 11 14 17 16 13 21 26 34 30 32 34 36 33 27 24 22 22 25 26 24 28 34 39 34
84 79 75 72 65 59 50 47 50 45 36 31 24 12 1 12 7 10 12 16 15 15 19 17 18 21 26 29 32 34 33 25 25 31 30 26 25 25 25 27 26 28 23
90 80 75 68 64 55 46 50 48 40 33 27 17 6 3 6 11 14 21 21 27 28 29 22 15 18 23 25 26 28 29 27 28 29 24 26 28 27 26 23 24 17 18
89 77 69 65 51 40 31 40 37 33 26 22 14 7 10 6 21 17 15 11 15 19 24 30 21 19 22 23 24 24 26 26 26 26 26 21 26 36 34 29 21 18 19
84 71 59 49 41 35 30 27 31 27 22 17 12 18 12 9 21 15 9 6 10 13 16 23 25 20 21 22 20 23 25 24 21 19 17 22 32 43 35 23 18 19 22
72 61 57 49 41 39 37 32 29 25 19 16 19 24 18 12 18 14 4 3 8 13 13 16 22 19 23 23 22 22 24 29 22 19 20 25 37 47 44 32 22 24 25
64 62 54 43 41 43 37 34 28 22 15 26 28 28 24 16 9 7 5 4 3 8 14 9 13 15 14 16 16 16 20 22 24 21 20 25 32 43 39 38 27 26 30
Wind_Direction_500mb
189 201 207 204 209 215 205 202 202 187 188 177 197 217 229 213 186 19 12 16 11 8 12 15 13 11 3 2 358 4 12 11 7 355 359 14 14 46 2 5 14 15 352
179 195 208 216 217 214 206 199 195 190 193 213 206 220 199 158 67 35 39 42 36 30 26 21 18 13 10 10 14 9 12 20 15 16 18 1 1 354 15 3 358 358 347
181 190 199 206 209 202 195 193 192 192 192 197 202 193 179 107 32 40 42 49 38 33 27 27 28 25 22 23 22 15 9 12 17 26 33 5 349 353 353 353 2 9 13
187 190 192 191 195 196 194 200 192 180 171 180 192 191 175 116 99 67 62 52 41 32 24 22 23 23 22 20 21 12 11 9 12 15 23 29 20 4 338 338 343 354 6
191 190 189 192 192 191 192 192 192 187 180 181 188 190 192 181 156 120 69 45 33 26 22 19 17 21 23 18 15 8 5 3 11 10 1 10 4 0 358 343 338 334 348
188 188 185 188 183 181 186 182 181 180 176 175 175 174 175 164 151 135 118 53 23 16 15 18 16 11 12 8 7 5 2 1 3 8 356 351 353 349 346 341 341 334 335
186 183 184 184 183 179 183 184 180 177 175 180 181 180 164 151 162 161 174 28 345 354 7 9 12 8 355 347 346 348 343 351 354 351 352 347 337 332 338 335 333 334 333
185 186 187 189 185 179 180 183 178 179 176 177 179 174 168 161 160 170 190 224 326 348 349 343 338 331 332 332 327 324 327 333 333 337 337 333 334 321 329 332 330 326 327
187 189 190 190 186 189 184 189 185 181 175 175 175 177 177 175 189 213 251 306 304 327 339 326 322 321 318 319 317 314 317 326 323 323 331 326 324 318 318 321 328 329 321
189 191 191 192 195 198 189 191 197 193 185 185 192 199 210 212 222 221 265 303 323 322 317 318 316 316 315 316 314 313 320 317 320 322 328 332 327 321 317 316 321 324 319
194 194 193 196 202 198 197 194 197 203 201 199 204 198 199 209 233 255 283 281 289 298 303 311 312 313 314 313 314 316 315 321 323 323 327 328 323 319 323 327 323 315 314
200 198 194 199 200 199 200 201 199 207 203 205 202 192 194 208 224 244 266 273 283 300 311 319 319 324 328 332 334 331 330 329 330 331 325 323 323 323 326 329 333 333 330
200 198 195 199 201 200 201 200 203 202 196 188 194 206 211 213 225 237 259 268 289 305 322 337 340 336 334 333 337 335 334 333 334 329 326 326 324 325 325 333 332 334 338
199 198 198 201 201 199 199 199 196 190 194 197 204 200 214 210 213 229 256 304 323 340 339 338 336 335 337 338 338 337 332 323 321 329 323 324 332 331 325 328 330 324 321
191 197 198 197 197 194 197 193 188 193 200 206 205 205 198 203 217 269 320 342 338 333 327 326 332 340 345 343 337 332 331 329 328 324 324 325 330 327 323 325 328 329 326
184 187 190 187 188 192 193 189 191 190 202 208 204 191 198 227 269 316 325 320 322 326 325 327 334 339 338 341 342 338 340 339 335 330 328 324 330 327 322 325 326 324 320
171 176 177 176 175 178 184 187 187 190 177 180 187 202 202 218 210 275 310 321 332 343 344 345 342 342 347 343 340 341 338 335 333 323 322 318 324 330 330 326 326 322 318
165 166 163 162 166 172 179 183 179 168 172 175 174 174 185 201 209 306 320 331 331 342 350 4 0 355 350 344 336 333 329 324 329 336 331 337 343 337 333 336 345 347 352
162 159 163 163 162 163 163 163 160 166 170 171 173 177 193 209 329 325 327 328 10 17 17 8 355 347 343 335 337 339 343 341 340 342 347 337 343 328 336 344 351 358 356
162 160 161 158 155 157 162 163 167 170 172 175 176 175 185 289 321 333 63 63 30 352 343 342 339 341 342 354 355 356 355 5 25 24 9 354 351 357 355 348 341 338 341
163 161 160 160 161 165 167 166 171 177 174 169 163 172 288 328 344 120 90 49 10 36 28 358 336 345 4 5 4 2 2 13 14 2 11 35 21 4 358 356 359 7 359
160 162 157 152 156 162 166 161 166 166 166 162 169 195 0 23 137 115 94 76 78 67 50 37 22 19 21 20 22 15 16 15 9 19 29 27 9 1 354 352 357 4 5
160 160 157 155 158 169 183 169 170 175 184 183 203 199 149 128 150 128 127 78 48 52 44 35 35 42 32 27 20 27 28 35 40 45 33 11 357 348 337 334 340 356 3
162 164 164 166 170 180 178 189 180 186 192 195 198 174 152 144 153 152 133 63 9 356 9 23 28 41 36 30 39 48 51 41 36 23 18 1 2 3 5 355 354 7 12
169 175 178 175 171 175 181 191 196 197 211 215 187 174 164 150 161 160 138 7 346 354 349 353 29 48 39 43 51 57 27 8 12 11 1 2 4 6 15 24 31 19 11
175 174 176 173 171 177 182 187 194 195 190 182 185 177 173 167 161 185 243 310 269 311 322 316 8 30 38 40 41 23 13 6 5 4 8 8 7 4 10 19 15 10 7
Wind_Speed_850mb
38 35 32 27 24 24 24 25 30 26 25 24 23 22 18 10 2 5 14 19 21 21 22 23 24 25 28 30 30 29 32 39 41 37 28 15 15 10 23 27 24 23 18
54 45 37 29 23 22 22 27 30 31 28 25 30 24 15 7 7 13 17 25 30 31 31 31 30 28 27 27 27 31 34 38 45 47 31 27 21 33 28 30 32 31 25
72 58 49 39 31 25 26 27 28 27 27 27 27 21 12 7 10 14 20 28 29 29 30 30 30 30 31 30 27 31 35 37 36 39 35 19 21 38 32 33 34 35 30
76 67 56 42 31 26 26 30 29 26 28 34 29 17 10 3 2 7 15 23 28 30 30 31 31 31 30 29 30 32 33 35 40 33 29 27 28 29 33 39 36 34 32
86 73 58 40 31 25 25 31 32 29 32 33 28 20 16 16 13 11 13 17 22 26 28 30 31 30 29 30 31 33 35 33 30 32 34 29 29 34 35 44 54 43 38
81 67 50 41 34 27 28 34 36 33 32 30 27 19 18 20 16 12 6 8 14 20 24 27 28 33 34 35 37 39 42 39 35 35 33 34 38 38 38 44 44 47 47
82 71 63 53 40 33 34 40 39 38 34 30 28 23 21 24 16 12 6 1 11 20 25 24 25 28 30 34 35 36 38 39 41 42 46 40 36 33 37 41 45 48 50
80 73 66 57 43 34 35 43 45 41 36 34 33 28 24 19 15 15 12 4 8 16 20 15 17 20 24 30 36 40 39 42 39 35 40 46 48 39 35 39 42 53 51
83 77 69 58 43 35 34 45 47 41 36 34 32 27 23 20 11 8 5 4 6 11 19 23 27 30 33 34 36 39 40 37 36 39 45 47 50 46 37 36 35 35 36
79 79 75 63 46 37 36 39 42 37 33 29 24 19 17 14 10 9 7 9 13 20 27 33 36 32 33 35 35 34 32 34 37 48 50 43 46 51 47 43 38 36 33
88 88 82 65 54 47 49 47 45 41 35 29 24 22 17 15 13 11 9 12 18 24 31 36 41 38 37 35 34 33 34 39 40 42 48 54 50 50 44 40 39 39 34
89 87 84 73 68 63 61 56 46 40 35 25 23 16 13 20 24 19 17 21 25 30 33 28 31 32 33 34 35 34 33 35 41 48 48 45 44 40 37 32 32 31 33
86 89 89 86 81 76 72 61 47 39 30 26 22 27 28 33 30 27 24 24 26 26 25 24 30 36 39 36 36 36 35 38 46 52 46 39 36 36 35 31 29 28 31
85 88 89 88 88 83 75 64 53 43 39 39 38 40 41 38 31 20 18 17 20 20 32 39 44 44 34 28 27 27 30 36 43 44 41 37 34 30 29 30 32 36 40
64 82 87 85 84 83 74 63 58 50 46 47 43 46 40 26 14 14 19 15 20 25 30 36 36 30 28 28 30 31 31 35 35 29 32 34 32 29 33 33 32 36 41
65 72 76 74 75 70 69 66 56 46 41 34 40 34 23 18 13 9 9 20 23 28 31 27 24 25 26 30 29 30 31 30 32 35 37 38 33 27 26 30 33 35 38
73 77 80 76 73 68 67 62 50 39 38 37 35 31 17 6 6 5 13 22 33 23 19 20 22 25 28 31 32 31 33 37 36 35 36 32 30 24 29 35 33 31 32
77 76 73 68 62 59 53 46 41 41 35 32 30 21 14 11 6 8 20 28 22 16 17 19 21 24 25 31 34 34 37 33 32 33 27 18 22 24 30 34 29 27 27
75 72 66 62 61 59 54 51 46 39 35 31 28 21 14 8 5 17 24 16 10 10 13 17 21 23 28 35 32 36 37 35 36 25 21 17 22 24 29 27 27 25 30
76 75 69 66 61 58 56 48 43 41 39 33 25 19 11 5 16 14 5 11 14 17 16 13 21 26 34 30 32 34 36 33 27 24 22 22 25 26 24 28 34 39 34
84 79 75 72 65 59 50 47 50 45 36 31 24 12 1 12 7 10 12 16 15 15 19 17 18 21 26 29 32 34 33 25 25 31 30 26 25 25 25 27 26 28 23
90 80 75 68 64 55 46 50 48 40 33 27 17 6 3 6 11 14 21 21 27 28 29 22 15 18 23 25 26 28 29 27 28 29 24 26 28 27 26 23 24 17 18
89 77 69 65 51 40 31 40 37 33 26 22 14 7 10 6 21 17 15 11 15 19 24 30 21 19 22 23 24 24 26 26 26 26 26 21 26 36 34 29 21 18 19
84 71 59 49 41 35 30 27 31 27 22 17 12 18 12 9 21 15 9 6 10 13 16 23 25 20 21 22 20 23 25 24 21 19 17 22 32 43 35 23 18 19 22
72 61 57 49 41 39 37 32 29 25 19 16 19 24 18 12 18 14 4 3 8 13 13 16 22 19 23 23 22 22 24 29 22 19 20 25 37 47 44 32 22 24 25
64 62 54 43 41 43 37 34 28 22 15 26 28 28 24 16 9 7 5 4 3 8 14 9 13 15 14 16 16 16 20 22 24 21 20 25 32 43 39 38 27 26 30
Wind_Direction_850mb
189 201 207 204 209 215 205 202 202 187 188 177 197 217 229 213 186 19 12 16 11 8 12 15 13 11 3 2 358 4 12 11 7 355 359 14 14 46 2 5 14 15 352
179 195 208 216 217 214 206 199 195 190 193 213 206 220 199 158 67 35 39 42 36 30 26 21 18 13 10 10 14 9 12 20 15 16 18 1 1 354 15 3 358 358 347
181 190 199 206 209 202 195 193 192 192 192 197 202 193 179 107 32 40 42 49 38 33 27 27 28 25 22 23 22 15 9 12 17 26 33 5 349 353 353 353 2 9 13
187 190 192 191 195 196 194 200 192 180 171 180 192 191 175 116 99 67 62 52 41 32 24 22 23 23 22 20 21 12 11 9 12 15 23 29 20 4 338 338 343 354 6
191 190 189 192 192 191 192 192 192 187 180 181 188 190 192 181 156 120 69 45 33 26 22 19 17 21 23 18 15 8 5 3 11 10 1 10 4 0 358 343 338 334 348
188 188 185 188 183 181 186 182 181 180 176 175 175 174 175 164 151 135 118 53 23 16 15 18 16 11 12 8 7 5 2 1 3 8 356 351 353 349 346 341 341 334 335
186 183 184 184 183 179 183 184 180 177 175 180 181 180 164 151 162 161 174 28 345 354 7 9 12 8 355 347 346 348 343 351 354 351 352 347 337 332 338 335 333 334 333
185 186 187 189 185 179 180 183 178 179 176 177 179 174 168 161 160 170 190 224 326 348 349 343 338 331 332 332 327 324 327 333 333 337 337 333 334 321 329 332 330 326 327
187 189 190 190 186 189 184 189 185 181 175 175 175 177 177 175 189 213 251 306 304 327 339 326 322 321 318 319 317 314 317 326 323 323 331 326 324 318 318 321 328 329 321
189 191 191 192 195 198 189 191 197 193 185 185 192 199 210 212 222 221 265 303 323 322 317 318 316 316 315 316 314 313 320 317 320 322 328 332 327 321 317 316 321 324 319
194 194 193 196 202 198 197 194 197 203 201 199 204 198 199 209 233 255 283 281 289 298 303 311 312 313 314 313 314 316 315 321 323 323 327 328 323 319 323 327 323 315 314
200 198 194 199 200 199 200 201 199 207 203 205 202 192 194 208 224 244 266 273 283 300 311 319 319 324 328 332 334 331 330 329 330 331 325 323 323 323 326 329 333 333 330
200 198 195 199 201 200 201 200 203 202 196 188 194 206 211 213 225 237 259 268 289 305 322 337 340 336 334 333 337 335 334 333 334 329 326 326 324 325 325 333 332 334 338
199 198 198 201 201 199 199 199 196 190 194 197 204 200 214 210 213 229 256 304 323 340 339 338 336 335 337 338 338 337 332 323 321 329 323 324 332 331 325 328 330 324 321
191 197 198 197 197 194 197 193 188 193 200 206 205 205 198 203 217 269 320 342 338 333 327 326 332 340 345 343 337 332 331 329 328 324 324 325 330 327 323 325 328 329 326
184 187 190 187 188 192 193 189 191 190 202 208 204 191 198 227 269 316 325 320 322 326 325 327 334 339 338 341 342 338 340 339 335 330 328 324 330 327 322 325 326 324 320
171 176 177 176 175 178 184 187 187 190 177 180 187 202 202 218 210 275 310 321 332 343 344 345 342 342 347 343 340 341 338 335 333 323 322 318 324 330 330 326 326 322 318
165 166 163 162 166 172 179 183 179 168 172 175 174 174 185 201 209 306 320 331 331 342 350 4 0 355 350 344 336 333 329 324 329 336 331 337 343 337 333 336 345 347 352
162 159 163 163 162 163 163 163 160 166 170 171 173 177 193 209 329 325 327 328 10 17 17 8 355 347 343 335 337 339 343 341 340 342 347 337 343 328 336 344 351 358 356
162 160 161 158 155 157 162 163 167 170 172 175 176 175 185 289 321 333 63 63 30 352 343 342 339 341 342 354 355 356 355 5 25 24 9 354 351 357 355 348 341 338 341
163 161 160 160 161 165 167 166 171 177 174 169 163 172 288 328 344 120 90 49 10 36 28 358 336 345 4 5 4 2 2 13 14 2 11 35 21 4 358 356 359 7 359
160 162 157 152 156 162 166 161 166 166 166 162 169 195 0 23 137 115 94 76 78 67 50 37 22 19 21 20 22 15 16 15 9 19 29 27 9 1 354 352 357 4 5
160 160 157 155 158 169 183 169 170 175 184 183 203 199 149 128 150 128 127 78 48 52 44 35 35 42 32 27 20 27 28 35 40 45 33 11 357 348 337 334 340 356 3
162 164 164 166 170 180 178 189 180 186 192 195 198 174 152 144 153 152 133 63 9 356 9 23 28 41 36 30 39 48 51 41 36 23 18 1 2 3 5 355 354 7 12
169 175 178 175 171 175 181 191 196 197 211 215 187 174 164 150 161 160 138 7 346 354 349 353 29 48 39 43 51 57 27 8 12 11 1 2 4 6 15 24 31 19 11
175 174 176 173 171 177 182 187 194 195 190 182 185 177 173 167 161 185 243 310 269 311 322 316 8 30 38 40 41 23 13 6 5 4 8 8 7 4 10 19 15 10 7